Weather History for Omaha, NE

Change the Weather History Date:

Friday, April 12, 2013

  Actual Average Record
Temperature  
Mean Temperature 36 °F 50 °F  
Max Temperature 41 °F 63 °F 86 °F (1916)
Min Temperature 30 °F 38 °F 18 °F (1957)
Degree Days  
Heating Degree Days 29 15  
Month to date heating degree days 237 203  
Since 1 July heating degree days 5664 5792  
Cooling Degree Days 0 0  
Month to date cooling degree days 0 0  
Year to date cooling degree days 0 1  
Moisture  
Dew Point 28 °F    
Average Humidity 72    
Maximum Humidity 89    
Minimum Humidity 55    
Precipitation  
Precipitation T in 0.09 in 1.20 in (1945)
Month to date precipitation 2.05 1.03  
Year to date precipitation 5.32 4.59  
Snow  
Snow T in 0.00 in - ()
Month to date snowfall 0.1 0.6  
Since 1 July snowfall 32.6 26.0  
Snow Depth 0.00 in    
Sea Level Pressure  
Sea Level Pressure 29.89 in    
Wind  
Wind Speed 15 mph (NW)    
Max Wind Speed 22 mph    
Max Gust Speed 26 mph    
Visibility 10 miles    
Events Snow    
T = Trace of Precipitation, MM = Missing Value Source: NWS Daily Summary

Daily Weather History Graph

Daily Weather History Graph

Search for Another Location

Airport:

Trip Planner

Search our weather history database for the weather conditions in past years. The results will help you decide how hot, cold, wet, or windy it might be!

Date:

Astronomy

Apr. 12, 2013 Rise Set
Actual Time 6:48 AM CDT 8:00 PM CDT
Civil Twilight 6:19 AM CDT 8:29 PM CDT
Nautical Twilight 5:45 AM CDT 9:03 PM CDT
Astronomical Twilight 5:10 AM CDT 9:39 PM CDT
Moon 7:57 AM CDT (4/12) 10:34 PM CDT (4/12)
Length of Visible Light 14h 09m
Length of Day
13h 12m
Waxing Crescent, 5% of the Moon is Illuminated
Apr 12
Waxing Crescent
Apr 18
First Quarter
Apr 25
Full
May 2
Last Quarter
May 9
New

Hourly Weather History & Observations

Time (CDT) Temp. Windchill Dew Point Humidity Pressure Visibility Wind Dir Wind Speed Gust Speed Precip Events Conditions
12:52 AM 33.1 °F 23.4 °F 27.0 °F 78% 29.75 in 9.0 mi NW 13.8 mph 20.7 mph 0.00 in Snow Light Snow
1:52 AM 33.1 °F 22.6 °F 28.0 °F 82% 29.76 in 10.0 mi WNW 16.1 mph - 0.00 in   Overcast
2:52 AM 34.0 °F 24.2 °F 28.0 °F 79% 29.76 in 10.0 mi NW 15.0 mph 24.2 mph N/A   Overcast
3:52 AM 34.0 °F 23.8 °F 28.0 °F 79% 29.76 in 10.0 mi NW 16.1 mph - N/A   Overcast
4:06 AM 33.8 °F 23.5 °F 28.4 °F 81% 29.74 in 10.0 mi NW 16.1 mph - N/A   Overcast
4:52 AM 34.0 °F 24.2 °F 28.9 °F 82% 29.77 in 10.0 mi NW 15.0 mph 23.0 mph N/A   Overcast
5:52 AM 34.0 °F 25.5 °F 28.9 °F 82% 29.79 in 10.0 mi NW 11.5 mph - N/A   Overcast
6:52 AM 34.0 °F 25.0 °F 30.0 °F 85% 29.81 in 10.0 mi WNW 12.7 mph - N/A   Overcast
7:52 AM 34.0 °F 22.7 °F 28.9 °F 82% 29.83 in 10.0 mi NW 19.6 mph 26.5 mph N/A   Overcast
8:52 AM 34.0 °F 23.4 °F 28.0 °F 79% 29.87 in 10.0 mi NW 17.3 mph - N/A   Overcast
9:52 AM 35.1 °F 24.5 °F 28.0 °F 76% 29.89 in 10.0 mi NW 18.4 mph 25.3 mph N/A   Overcast
10:52 AM 36.0 °F 25.0 °F 28.9 °F 76% 29.91 in 10.0 mi NW 20.7 mph - N/A   Overcast
11:52 AM 37.9 °F 29.2 °F 28.0 °F 68% 29.92 in 10.0 mi NW 15.0 mph - N/A   Overcast
12:52 PM 37.9 °F 29.6 °F 28.0 °F 68% 29.93 in 10.0 mi NW 13.8 mph - N/A   Overcast
1:52 PM 39.9 °F 30.5 °F 27.0 °F 60% 29.93 in 10.0 mi WNW 19.6 mph - N/A   Mostly Cloudy
2:52 PM 39.9 °F 31.4 °F 26.1 °F 58% 29.95 in 10.0 mi WNW 16.1 mph - N/A   Mostly Cloudy
3:52 PM 39.9 °F 31.4 °F 26.1 °F 58% 29.95 in 10.0 mi NW 16.1 mph - N/A   Overcast
4:52 PM 39.9 °F 32.1 °F 27.0 °F 60% 29.95 in 10.0 mi NW 13.8 mph - N/A   Overcast
5:52 PM 41.0 °F 32.2 °F 27.0 °F 57% 29.97 in 10.0 mi NW 18.4 mph - N/A   Overcast
6:52 PM 39.0 °F 31.4 °F 27.0 °F 62% 29.98 in 10.0 mi NW 12.7 mph - N/A   Overcast
7:52 PM 39.0 °F 30.6 °F 26.1 °F 60% 29.99 in 10.0 mi WNW 15.0 mph 20.7 mph N/A   Mostly Cloudy
8:52 PM 36.0 °F 29.0 °F 28.0 °F 73% 30.00 in 10.0 mi North 9.2 mph - N/A   Mostly Cloudy
9:52 PM 35.1 °F 26.4 °F 26.1 °F 70% 30.02 in 10.0 mi NNW 12.7 mph - N/A   Overcast
10:52 PM 34.0 °F 27.2 °F 26.1 °F 73% 30.04 in 10.0 mi NNW 8.1 mph - N/A   Overcast
11:52 PM 32.0 °F 24.8 °F 25.0 °F 75% 30.05 in 10.0 mi NW 8.1 mph - N/A   Mostly Cloudy